Location: Bakoi Town
(6.3667°N, 10.7167°W)
Time: 04:19:39
(UTC+00:00)

Daily predictions for brighter satellites

Satellite Brightness Start Highest point End
(mag) Time Altitude Azimuth Time Altitude Azimuth Time Altitude Azimuth
Cosmos 1844 Rocket 3.5 04:14:49 45° NNE 04:14:49 45° NNE 04:18:37 10° NNE
Atlas Centaur 2 2.9 04:17:02 47° NE 04:17:02 47° NE 04:22:59 10° ESE
BREEZE M DEB (TANK) 4.5 04:17:21 53° NW 04:17:21 53° NW 04:22:11 10° NNE
ALOS 3.6 04:21:13 10° NNE 04:23:55 35° NNE 04:23:55 35° NNE
Cosmos 1626 4.2 04:29:48 10° NNE 04:32:32 25° ENE 04:32:32 25° ENE
CZ-2C R/B 4.4 04:33:20 10° N 04:34:22 16° NNW 04:34:22 16° NNW
FENGYUN 3A 4.0 04:35:27 10° N 04:39:42 51° NNW 04:39:42 51° NNW
Meteor 1-22 Rocket 4.3 04:41:06 49° S 04:42:48 80° E 04:48:38 10° N
X-37B 3.0 04:46:33 23° E 04:46:33 23° E 04:48:05 10° ENE
Cosmos 1867 3.7 04:51:56 53° NW 04:51:56 53° NW 04:56:55 10° N
SeaSat 1 3.7 04:48:03 10° NE 04:52:33 36° ESE 04:55:39 18° SSE
ARIANE 5 DEB (SYLDA) 4.3 04:53:23 44° WSW 04:56:03 74° S 05:46:12 10° E
BLOCK DM-SL R/B 4.0 04:57:18 38° S 04:57:18 38° S 05:01:39 10° ESE
FUSE 4.0 04:59:24 37° NW 05:01:33 76° NNE 05:06:55 10° ESE
Cosmos 1821 Rocket 4.1 05:01:15 45° SW 05:02:34 53° W 05:08:33 10° N
Okean 1 Rocket 3.0 05:07:41 29° S 05:09:51 81° E 05:14:13 10° N
ATLAS 2A CENTAUR R/B 4.1 05:09:00 36° WSW 05:11:17 49° SSW 05:32:49 10° SE
Cosmos 1975 Rocket 4.1 05:09:42 10° NNW 05:12:17 28° NW 05:12:17 28° NW
MOS 1 Rocket 3.6 05:09:49 10° SSE 05:14:26 71° ENE 05:19:22 10° N
Cosmos 1470 2.7 05:15:13 54° WSW 05:15:37 58° W 05:19:28 10° N
Cosmos 1726 2.3 05:16:15 47° WNW 05:16:15 47° WNW 05:19:22 10° N
SL-14 R/B 3.4 05:12:09 10° N 05:16:03 72° E 05:20:00 10° S
Cosmos 1607 4.4 05:11:33 13° S 05:17:10 61° ESE 05:23:30 10° NNE
Meteor 2-10 4.2 05:18:14 36° WSW 05:19:25 43° W 05:24:12 10° NNW
GPS 2-04 Rocket1 2.6 05:19:58 46° SW 05:21:08 89° SE 05:25:07 10° NE
Hubble Space Telescope 2.7 05:23:38 16° S 05:23:38 16° S 05:25:08 10° SSE
SJ-12 4.1 05:18:08 10° NNE 05:22:13 73° ESE 05:26:04 12° S
USA 281 4.5 05:16:50 10° SE 05:22:58 43° ENE 05:29:04 10° N
CZ-4B R/B 4.2 05:19:30 10° NNE 05:23:40 73° E 05:28:03 10° S
H-2A R/B 3.4 05:24:05 10° NNE 05:27:39 51° E 05:31:14 10° S
deb Ariane 4.2 05:28:39 28° SW 05:29:37 34° S 05:34:58 10° ESE
FALCON 9 DEB 4.2 05:28:30 20° S 05:30:02 33° ESE 05:32:45 10° ENE
Cosmos 1943 3.1 05:27:26 10° NNW 05:33:06 80° WSW 05:38:46 10° SSE
Delta 198 3.4 05:32:17 29° WSW 05:34:20 81° SSE 05:39:04 10° ENE
Cosmos 1315 Rocket 4.4 05:36:58 19° WNW 05:36:58 19° WNW 05:39:33 10° NW
Cosmos 2278 Rocket 2.6 05:35:55 10° S 05:41:31 66° ESE 05:47:05 10° NNE
SL-24 R/B 4.3 05:37:30 10° NNE 05:42:06 80° E 05:46:26 10° S
CZ-3 R/B 4.1 05:20:39 16° W 05:42:29 41° NW 05:50:48 10° NE
FALCON 9 DEB 4.3 05:44:10 21° W 05:45:24 26° NW 05:48:19 10° N
Cosmos 1486 Rocket 4.3 05:41:09 10° S 05:46:22 72° ESE 05:51:33 10° NNE
FALCON 9 DEB 3.9 05:44:23 12° SSW 05:47:00 39° SE 05:49:50 10° NE
Ariane H10+ 4.4 05:45:28 14° SW 05:50:24 43° SSE 06:26:51 10° E
Cosmos 1763 Rocket 3.6 05:45:21 10° N 05:50:37 80° ENE 05:55:50 10° SSE
Cosmos 1025 Rocket 4.2 05:48:45 10° NW 05:52:09 23° W 05:55:35 10° SW
Meteor 1-24 Rocket 3.7 05:47:36 10° N 05:53:22 82° W 05:58:56 10° S
Meteor 2-5 Rocket 3.8 05:49:14 10° NNW 05:54:56 60° W 06:00:33 10° S
CZ-4C R/B 3.2 05:51:04 10° NNW 05:59:31 70° WSW 06:08:02 10° SSE
FALCON 9 DEB 2.7 05:58:37 10° SSW 06:01:38 88° ESE 06:04:37 10° NE
Ariane H10 4.0 05:56:43 11° W 06:02:44 33° SSW 06:05:27 10° SE
CZ-4C R/B 3.7 05:59:52 10° SSE 06:03:25 60° ENE 06:06:56 10° N
Meteor PRIRODA 3.6 06:00:51 10° NNE 06:04:27 86° E 06:08:03 10° S
Atlas Centaur 2 2.9 06:00:36 10° W 06:06:07 41° SSW 06:12:58 10° SE
Aurora 2 Rocket 4.3 05:59:30 10° NW 06:07:48 57° NNE 06:13:35 10° E
Meteosat 1 Rocket2 3.7 06:08:00 10° W 06:11:33 34° SSW 06:16:08 10° SE
Cosmos 1455 Rocket 3.2 06:07:42 10° SSW 06:12:04 59° W 06:16:26 10° N
Cosmos 1544 Rocket 4.0 06:08:17 10° S 06:12:43 69° E 06:17:07 10° N
Meteor 1-31 Rocket 4.3 06:11:01 10° NNW 06:13:41 18° WNW 06:16:22 10° WSW
Cosmos 1953 2.7 06:10:28 10° SSW 06:14:20 45° W 06:18:13 10° NNW
